Back to catalog

CZ-6A DEB

AliveSSO
NORAD 54320·DEBRIS·🇨🇳 China

Launched Nov 11, 2022 from Taiyuan Satellite Launch Center

Loading…

Next Passes (next 24 hours)

TLE

FreshSource: Space-Track

Epoch: Sep 14, 2026, 04:11 UTC

1 54320U 22151BP  26257.17450107 -.00000021  00000-0  15363-4 0  9998
2 54320  98.9621 226.3339 0133031 176.8334 183.3699 13.93066291194555

Track CZ-6A DEB in real time with AllMySat

Download on the App Store